Time,TemperatureF,DewpointF,PressureIn,WindDirection,WindDirectionDegrees,WindSpeedMPH,WindSpeedGustMPH,Humidity,HourlyPrecipIn,Conditions,Clouds,dailyrainin,SoftwareType,DateUTC
2013-04-29 00:02:00,59.0,54.9,29.75,SSE,158,4.3,8.5,86,0.00,,,0.00,WUHU216HW,2013-04-29 05:02:00,
2013-04-29 00:06:00,59.0,55.2,29.75,South,180,7.2,7.2,87,0.00,,,0.00,WUHU216HW,2013-04-29 05:06:00,
2013-04-29 00:12:00,59.0,55.2,29.75,SSW,203,5.8,7.2,87,0.00,,,0.00,WUHU216HW,2013-04-29 05:12:00,
2013-04-29 00:16:00,59.0,54.9,29.74,South,180,4.0,7.2,86,0.00,,,0.00,WUHU216HW,2013-04-29 05:16:00,
2013-04-29 00:21:00,58.9,54.7,29.74,South,180,5.4,5.8,86,0.00,,,0.00,WUHU216HW,2013-04-29 05:21:00,
2013-04-29 00:26:00,58.7,54.6,29.74,SSW,203,5.4,6.0,86,0.00,,,0.00,WUHU216HW,2013-04-29 05:26:00,
2013-04-29 00:31:00,58.7,54.6,29.74,SSW,203,6.3,6.3,86,0.00,,,0.00,WUHU216HW,2013-04-29 05:31:00,
2013-04-29 00:36:00,58.5,54.6,29.75,South,180,3.4,6.3,87,0.00,,,0.00,WUHU216HW,2013-04-29 05:36:00,
2013-04-29 00:41:00,58.3,54.5,29.75,South,180,3.8,6.3,87,0.00,,,0.00,WUHU216HW,2013-04-29 05:41:00,
2013-04-29 00:46:00,58.1,54.3,29.75,SSW,203,4.7,4.7,87,0.00,,,0.00,WUHU216HW,2013-04-29 05:46:00,
2013-04-29 00:52:00,58.1,54.3,29.75,SSW,203,6.0,6.7,87,0.00,,,0.00,WUHU216HW,2013-04-29 05:52:00,
2013-04-29 00:57:00,58.0,54.1,29.75,SSW,203,6.0,6.7,87,0.00,,,0.00,WUHU216HW,2013-04-29 05:57:00,
2013-04-29 01:02:00,58.1,54.6,29.74,SSW,203,4.0,6.0,88,0.00,,,0.00,WUHU216HW,2013-04-29 06:02:00,
2013-04-29 01:07:00,58.3,54.8,29.74,South,180,6.9,6.9,88,0.00,,,0.00,WUHU216HW,2013-04-29 06:07:00,
2013-04-29 01:12:00,58.3,54.8,29.74,SSW,203,6.7,6.9,88,0.00,,,0.00,WUHU216HW,2013-04-29 06:12:00,
2013-04-29 01:17:00,58.3,54.8,29.74,South,180,5.6,6.9,88,0.00,,,0.00,WUHU216HW,2013-04-29 06:17:00,
2013-04-29 01:21:00,58.5,55.0,29.74,SSW,203,4.7,9.8,88,0.00,,,0.00,WUHU216HW,2013-04-29 06:21:00,
2013-04-29 01:26:00,58.5,55.0,29.74,South,180,6.5,9.8,88,0.00,,,0.00,WUHU216HW,2013-04-29 06:26:00,
2013-04-29 01:31:00,58.5,54.6,29.74,South,180,7.8,8.5,87,0.00,,,0.00,WUHU216HW,2013-04-29 06:31:00,
2013-04-29 01:36:00,58.7,55.2,29.74,South,180,7.6,7.8,88,0.00,,,0.00,WUHU216HW,2013-04-29 06:36:00,
2013-04-29 01:41:00,58.5,54.6,29.74,SE,135,6.9,7.8,87,0.00,,,0.00,WUHU216HW,2013-04-29 06:41:00,
2013-04-29 01:46:00,58.5,54.6,29.73,SW,225,8.1,8.1,87,0.00,,,0.00,WUHU216HW,2013-04-29 06:46:00,
2013-04-29 01:51:00,58.9,55.0,29.73,South,180,5.4,8.1,87,0.00,,,0.00,WUHU216HW,2013-04-29 06:51:00,
2013-04-29 01:56:00,59.0,55.2,29.73,SW,225,7.6,7.6,87,0.00,,,0.00,WUHU216HW,2013-04-29 06:56:00,
2013-04-29 02:01:00,58.9,54.7,29.73,SE,135,5.4,7.6,86,0.00,,,0.00,WUHU216HW,2013-04-29 07:01:00,
2013-04-29 02:06:00,58.9,55.0,29.73,South,180,7.8,7.8,87,0.00,,,0.00,WUHU216HW,2013-04-29 07:06:00,
2013-04-29 02:11:00,58.7,54.8,29.73,South,180,4.5,7.8,87,0.00,,,0.00,WUHU216HW,2013-04-29 07:11:00,
2013-04-29 02:16:00,58.7,54.8,29.73,South,180,4.7,7.8,87,0.00,,,0.00,WUHU216HW,2013-04-29 07:16:00,
2013-04-29 02:21:00,58.5,54.6,29.72,South,180,5.1,7.4,87,0.00,,,0.00,WUHU216HW,2013-04-29 07:21:00,
2013-04-29 02:26:00,58.5,54.6,29.72,South,180,6.3,6.7,87,0.00,,,0.00,WUHU216HW,2013-04-29 07:26:00,
2013-04-29 02:31:00,58.5,54.6,29.72,SSE,158,5.1,6.7,87,0.00,,,0.00,WUHU216HW,2013-04-29 07:31:00,
2013-04-29 02:36:00,58.3,54.5,29.72,South,180,7.6,7.6,87,0.00,,,0.00,WUHU216HW,2013-04-29 07:36:00,
2013-04-29 02:41:00,58.3,54.5,29.72,SSE,158,5.4,7.6,87,0.00,,,0.00,WUHU216HW,2013-04-29 07:41:00,
2013-04-29 02:46:00,58.1,54.3,29.72,SSE,158,3.8,7.6,87,0.00,,,0.00,WUHU216HW,2013-04-29 07:46:00,
2013-04-29 02:51:00,58.0,54.1,29.72,SSE,158,4.5,5.4,87,0.00,,,0.00,WUHU216HW,2013-04-29 07:51:00,
2013-04-29 02:56:00,58.0,54.5,29.72,SSE,158,5.4,5.4,88,0.00,,,0.00,WUHU216HW,2013-04-29 07:56:00,
2013-04-29 03:01:00,58.0,54.5,29.72,SSW,203,7.6,7.6,88,0.00,,,0.00,WUHU216HW,2013-04-29 08:01:00,
2013-04-29 03:06:00,58.0,54.5,29.72,South,180,4.7,7.6,88,0.00,,,0.00,WUHU216HW,2013-04-29 08:06:00,
2013-04-29 03:11:00,57.8,53.9,29.72,South,180,5.4,7.6,87,0.00,,,0.00,WUHU216HW,2013-04-29 08:11:00,
2013-04-29 03:16:00,57.8,53.9,29.72,South,180,6.3,8.9,87,0.00,,,0.00,WUHU216HW,2013-04-29 08:16:00,
2013-04-29 03:21:00,57.6,53.7,29.72,South,180,5.6,8.9,87,0.00,,,0.00,WUHU216HW,2013-04-29 08:21:00,
2013-04-29 03:26:00,57.6,54.1,29.72,South,180,4.9,6.3,88,0.00,,,0.00,WUHU216HW,2013-04-29 08:26:00,
2013-04-29 03:31:00,57.2,53.4,29.72,SSE,158,4.9,5.6,87,0.00,,,0.00,WUHU216HW,2013-04-29 08:31:00,
2013-04-29 03:36:00,57.2,53.7,29.72,SSW,203,4.5,4.9,88,0.00,,,0.00,WUHU216HW,2013-04-29 08:36:00,
2013-04-29 03:41:00,57.2,53.4,29.72,South,180,2.7,4.9,87,0.00,,,0.00,WUHU216HW,2013-04-29 08:41:00,
2013-04-29 03:46:00,56.7,53.2,29.72,SSW,203,4.7,5.8,88,0.00,,,0.00,WUHU216HW,2013-04-29 08:46:00,
2013-04-29 03:51:00,56.7,53.2,29.72,SSE,158,5.6,5.8,88,0.00,,,0.00,WUHU216HW,2013-04-29 08:51:00,
2013-04-29 03:56:00,56.5,53.0,29.72,South,180,3.8,5.6,88,0.00,,,0.00,WUHU216HW,2013-04-29 08:56:00,
2013-04-29 04:01:00,56.5,53.3,29.72,SSW,203,4.9,5.6,89,0.00,,,0.00,WUHU216HW,2013-04-29 09:01:00,
2013-04-29 04:06:00,56.5,53.0,29.72,SE,135,6.5,6.5,88,0.00,,,0.00,WUHU216HW,2013-04-29 09:06:00,
2013-04-29 04:11:00,56.2,52.7,29.72,South,180,4.9,6.5,88,0.00,,,0.00,WUHU216HW,2013-04-29 09:11:00,
2013-04-29 04:16:00,56.2,52.9,29.72,SSE,158,4.7,7.4,89,0.00,,,0.00,WUHU216HW,2013-04-29 09:16:00,
2013-04-29 04:21:00,56.2,52.9,29.73,SSE,158,3.8,7.4,89,0.00,,,0.00,WUHU216HW,2013-04-29 09:21:00,
2013-04-29 04:26:00,56.2,52.9,29.73,SSW,203,4.5,4.7,89,0.00,,,0.00,WUHU216HW,2013-04-29 09:26:00,
2013-04-29 04:31:00,56.2,52.9,29.73,South,180,4.7,5.6,89,0.00,,,0.00,WUHU216HW,2013-04-29 09:31:00,
2013-04-29 04:36:00,56.2,52.9,29.73,South,180,3.8,5.6,89,0.00,,,0.00,WUHU216HW,2013-04-29 09:36:00,
2013-04-29 04:41:00,55.8,52.6,29.74,SW,225,1.3,4.5,89,0.00,,,0.00,WUHU216HW,2013-04-29 09:41:00,
2013-04-29 04:46:00,55.8,52.9,29.74,SW,225,0.4,4.3,90,0.00,,,0.00,WUHU216HW,2013-04-29 09:46:00,
2013-04-29 04:51:00,55.8,52.9,29.75,WSW,248,2.0,2.0,90,0.00,,,0.00,WUHU216HW,2013-04-29 09:51:00,
2013-04-29 04:56:00,55.8,52.6,29.75,West,270,0.9,2.0,89,0.00,,,0.00,WUHU216HW,2013-04-29 09:56:00,
2013-04-29 05:01:00,55.1,51.6,29.75,WSW,248,1.3,1.3,88,0.00,,,0.00,WUHU216HW,2013-04-29 10:01:00,
2013-04-29 05:06:00,54.4,50.9,29.75,SW,225,1.3,1.3,88,0.00,,,0.00,WUHU216HW,2013-04-29 10:06:00,
2013-04-29 05:11:00,54.0,50.5,29.75,SW,225,1.1,1.3,88,0.00,,,0.00,WUHU216HW,2013-04-29 10:11:00,
2013-04-29 05:16:00,53.1,49.6,29.75,South,180,1.6,1.6,88,0.00,,,0.00,WUHU216HW,2013-04-29 10:16:00,
2013-04-29 05:21:00,52.2,48.7,29.74,South,180,1.3,2.0,88,0.00,,,0.00,WUHU216HW,2013-04-29 10:21:00,
2013-04-29 05:26:00,52.2,49.1,29.75,South,180,1.3,2.0,89,0.00,,,0.00,WUHU216HW,2013-04-29 10:26:00,
2013-04-29 05:31:00,51.7,48.5,29.75,South,180,1.8,2.5,89,0.00,,,0.00,WUHU216HW,2013-04-29 10:31:00,
2013-04-29 05:36:00,51.8,49.2,29.75,South,180,2.0,2.5,91,0.00,,,0.00,WUHU216HW,2013-04-29 10:36:00,
2013-04-29 05:41:00,51.8,49.5,29.75,South,180,1.8,2.2,92,0.00,,,0.00,WUHU216HW,2013-04-29 10:41:00,
2013-04-29 05:46:00,52.2,50.2,29.75,SW,225,1.6,2.0,93,0.00,,,0.00,WUHU216HW,2013-04-29 10:46:00,
2013-04-29 05:51:00,52.9,51.2,29.76,SW,225,1.6,1.6,94,0.00,,,0.00,WUHU216HW,2013-04-29 10:51:00,
2013-04-29 05:56:00,53.1,51.4,29.75,SSW,203,0.2,1.6,94,0.00,,,0.00,WUHU216HW,2013-04-29 10:56:00,
2013-04-29 06:01:00,52.2,50.2,29.75,SSW,203,0.0,0.7,93,0.00,,,0.00,WUHU216HW,2013-04-29 11:01:00,
2013-04-29 06:06:00,51.5,49.1,29.75,SSW,203,0.0,0.2,92,0.00,,,0.00,WUHU216HW,2013-04-29 11:06:00,
2013-04-29 06:11:00,50.9,48.6,29.75,SE,135,0.0,0.4,92,0.00,,,0.00,WUHU216HW,2013-04-29 11:11:00,
2013-04-29 06:16:00,50.4,47.8,29.76,SE,135,0.2,0.7,91,0.00,,,0.00,WUHU216HW,2013-04-29 11:16:00,
2013-04-29 06:21:00,50.4,47.8,29.76,NNE,23,0.9,0.9,91,0.00,,,0.00,WUHU216HW,2013-04-29 11:21:00,
2013-04-29 06:26:00,51.5,49.1,29.76,NNE,23,0.0,1.1,92,0.00,,,0.00,WUHU216HW,2013-04-29 11:26:00,
2013-04-29 06:31:00,50.9,48.3,29.76,East,90,0.4,1.1,91,0.00,,,0.00,WUHU216HW,2013-04-29 11:31:00,
2013-04-29 06:36:00,50.4,47.8,29.76,SSE,158,0.9,1.1,91,0.00,,,0.00,WUHU216HW,2013-04-29 11:36:00,
2013-04-29 06:41:00,50.2,47.9,29.76,SSW,203,0.0,1.1,92,0.00,,,0.00,WUHU216HW,2013-04-29 11:41:00,
2013-04-29 06:46:00,51.1,49.2,29.76,South,180,0.2,0.4,93,0.00,,,0.00,WUHU216HW,2013-04-29 11:46:00,
2013-04-29 06:51:00,50.6,48.2,29.77,South,180,0.0,0.4,92,0.00,,,0.00,WUHU216HW,2013-04-29 11:51:00,
2013-04-29 06:56:00,50.2,47.9,29.76,SSE,158,0.9,0.9,92,0.00,,,0.00,WUHU216HW,2013-04-29 11:56:00,
2013-04-29 07:01:00,50.4,48.1,29.76,SSE,158,0.4,0.9,92,0.00,,,0.00,WUHU216HW,2013-04-29 12:01:00,
2013-04-29 07:06:00,51.5,49.1,29.77,SE,135,0.4,0.9,92,0.00,,,0.00,WUHU216HW,2013-04-29 12:06:00,
2013-04-29 07:11:00,52.4,50.0,29.77,SSE,158,1.1,1.6,92,0.00,,,0.00,WUHU216HW,2013-04-29 12:11:00,
2013-04-29 07:16:00,53.8,51.9,29.77,SSE,158,0.4,1.6,93,0.00,,,0.00,WUHU216HW,2013-04-29 12:16:00,
2013-04-29 07:21:00,55.6,53.7,29.76,SSE,158,2.2,2.2,93,0.00,,,0.00,WUHU216HW,2013-04-29 12:21:00,
2013-04-29 07:26:00,57.6,55.3,29.77,SSE,158,2.5,2.5,92,0.00,,,0.00,WUHU216HW,2013-04-29 12:26:00,
2013-04-29 07:31:00,59.6,57.2,29.77,South,180,1.3,2.5,92,0.00,,,0.00,WUHU216HW,2013-04-29 12:31:00,
2013-04-29 07:36:00,61.4,58.1,29.77,SSE,158,2.5,2.5,89,0.00,,,0.00,WUHU216HW,2013-04-29 12:36:00,
2013-04-29 07:41:00,61.9,58.7,29.77,SSE,158,1.8,2.5,89,0.00,,,0.00,WUHU216HW,2013-04-29 12:41:00,
2013-04-29 07:46:00,63.7,58.2,29.77,South,180,2.9,2.9,82,0.00,,,0.00,WUHU216HW,2013-04-29 12:46:00,
2013-04-29 07:51:00,63.7,57.4,29.77,SSE,158,2.9,2.9,80,0.00,,,0.00,WUHU216HW,2013-04-29 12:51:00,
2013-04-29 07:56:00,64.6,58.7,29.77,SE,135,4.0,4.3,81,0.00,,,0.00,WUHU216HW,2013-04-29 12:56:00,
2013-04-29 08:01:00,65.3,58.7,29.77,South,180,4.0,4.3,79,0.00,,,0.00,WUHU216HW,2013-04-29 13:01:00,
2013-04-29 08:06:00,65.2,57.8,29.77,SSW,203,6.3,6.3,77,0.00,,,0.00,WUHU216HW,2013-04-29 13:06:00,
2013-04-29 08:11:00,65.3,58.7,29.77,South,180,4.9,6.3,79,0.00,,,0.00,WUHU216HW,2013-04-29 13:11:00,
2013-04-29 08:16:00,65.5,58.2,29.77,South,180,6.0,6.3,77,0.00,,,0.00,WUHU216HW,2013-04-29 13:16:00,
2013-04-29 08:21:00,65.9,58.5,29.77,SW,225,4.0,6.0,77,0.00,,,0.00,WUHU216HW,2013-04-29 13:21:00,
2013-04-29 08:26:00,65.9,58.1,29.77,SSW,203,6.0,6.0,76,0.00,,,0.00,WUHU216HW,2013-04-29 13:26:00,
2013-04-29 08:31:00,65.9,58.1,29.77,SSW,203,8.5,8.5,76,0.00,,,0.00,WUHU216HW,2013-04-29 13:31:00,
2013-04-29 08:36:00,65.7,58.3,29.76,SW,225,7.4,8.5,77,0.00,,,0.00,WUHU216HW,2013-04-29 13:36:00,
2013-04-29 08:41:00,65.9,58.9,29.76,South,180,8.3,8.5,78,0.00,,,0.00,WUHU216HW,2013-04-29 13:41:00,
2013-04-29 08:46:00,66.4,59.4,29.76,SW,225,6.7,8.3,78,0.00,,,0.00,WUHU216HW,2013-04-29 13:46:00,
2013-04-29 08:51:00,67.1,59.7,29.76,SSW,203,4.0,8.3,77,0.00,,,0.00,WUHU216HW,2013-04-29 13:51:00,
2013-04-29 08:56:00,67.9,59.3,29.76,SSW,203,7.8,7.8,74,0.00,,,0.00,WUHU216HW,2013-04-29 13:56:00,
2013-04-29 09:01:00,68.6,59.9,29.75,SW,225,3.8,9.2,74,0.00,,,0.00,WUHU216HW,2013-04-29 14:01:00,
2013-04-29 09:06:00,69.1,60.0,29.75,South,180,5.4,9.2,73,0.00,,,0.00,WUHU216HW,2013-04-29 14:06:00,
2013-04-29 09:11:00,69.3,60.6,29.75,SSW,203,8.3,9.2,74,0.00,,,0.00,WUHU216HW,2013-04-29 14:11:00,
2013-04-29 09:16:00,69.3,59.5,29.75,SSW,203,9.2,10.1,71,0.00,,,0.00,WUHU216HW,2013-04-29 14:16:00,
2013-04-29 09:21:00,69.1,59.7,29.75,SW,225,6.9,10.1,72,0.00,,,0.00,WUHU216HW,2013-04-29 14:21:00,
2013-04-29 09:26:00,70.6,60.7,29.75,South,180,5.4,9.2,71,0.00,,,0.00,WUHU216HW,2013-04-29 14:26:00,
2013-04-29 09:31:00,71.6,61.4,29.74,South,180,6.7,7.2,70,0.00,,,0.00,WUHU216HW,2013-04-29 14:31:00,
2013-04-29 09:36:00,71.8,61.6,29.74,South,180,8.3,8.3,70,0.00,,,0.00,WUHU216HW,2013-04-29 14:36:00,
2013-04-29 09:41:00,72.7,62.5,29.74,SSW,203,7.2,8.3,70,0.00,,,0.00,WUHU216HW,2013-04-29 14:41:00,
2013-04-29 09:46:00,73.4,61.4,29.74,SSW,203,8.7,11.2,66,0.00,,,0.00,WUHU216HW,2013-04-29 14:46:00,
2013-04-29 09:51:00,73.4,62.3,29.73,South,180,5.8,11.2,68,0.00,,,0.00,WUHU216HW,2013-04-29 14:51:00,
2013-04-29 09:56:00,74.0,63.6,29.73,SSW,203,7.8,8.3,70,0.00,,,0.00,WUHU216HW,2013-04-29 14:56:00,
2013-04-29 10:01:00,74.5,62.8,29.73,South,180,9.4,13.4,67,0.00,,,0.00,WUHU216HW,2013-04-29 15:01:00,
2013-04-29 10:06:00,74.5,62.8,29.73,SSE,158,8.5,13.4,67,0.00,,,0.00,WUHU216HW,2013-04-29 15:06:00,
2013-04-29 10:11:00,74.3,62.2,29.72,SW,225,7.6,10.7,66,0.00,,,0.00,WUHU216HW,2013-04-29 15:11:00,
2013-04-29 10:16:00,73.3,62.6,29.72,SW,225,12.3,12.3,69,0.00,,,0.00,WUHU216HW,2013-04-29 15:16:00,
2013-04-29 10:21:00,73.4,62.3,29.72,SW,225,11.4,12.3,68,0.00,,,0.00,WUHU216HW,2013-04-29 15:21:00,
2013-04-29 10:26:00,74.0,63.6,29.72,SW,225,9.8,12.3,70,0.00,,,0.00,WUHU216HW,2013-04-29 15:26:00,
2013-04-29 10:31:00,74.0,62.8,29.72,SSE,158,10.1,10.3,68,0.00,,,0.00,WUHU216HW,2013-04-29 15:31:00,
2013-04-29 10:36:00,73.4,62.3,29.72,SSW,203,10.3,10.3,68,0.00,,,0.00,WUHU216HW,2013-04-29 15:36:00,
2013-04-29 10:41:00,74.0,64.1,29.71,SSW,203,11.0,12.8,71,0.00,,,0.00,WUHU216HW,2013-04-29 15:41:00,
2013-04-29 10:46:00,74.9,63.2,29.71,SW,225,8.3,12.8,67,0.00,,,0.00,WUHU216HW,2013-04-29 15:46:00,
2013-04-29 10:51:00,75.2,63.9,29.71,South,180,10.7,14.3,68,0.00,,,0.00,WUHU216HW,2013-04-29 15:51:00,
2013-04-29 10:56:00,76.1,63.9,29.71,SSE,158,6.3,14.3,66,0.00,,,0.00,WUHU216HW,2013-04-29 15:56:00,
2013-04-29 11:01:00,76.1,63.9,29.71,SW,225,7.6,11.4,66,0.00,,,0.00,WUHU216HW,2013-04-29 16:01:00,
2013-04-29 11:06:00,76.5,63.8,29.71,SSW,203,11.6,11.6,65,0.00,,,0.00,WUHU216HW,2013-04-29 16:06:00,
2013-04-29 11:11:00,75.8,63.6,29.71,SSW,203,6.3,11.6,66,0.00,,,0.00,WUHU216HW,2013-04-29 16:11:00,
2013-04-29 11:16:00,75.6,63.8,29.71,SSW,203,12.1,12.1,67,0.00,,,0.00,WUHU216HW,2013-04-29 16:16:00,
2013-04-29 11:21:00,75.8,65.7,29.71,South,180,10.5,12.1,71,0.00,,,0.00,WUHU216HW,2013-04-29 16:21:00,
2013-04-29 11:26:00,76.3,64.5,29.71,SSW,203,5.6,12.1,67,0.00,,,0.00,WUHU216HW,2013-04-29 16:26:00,
2013-04-29 11:31:00,77.4,64.3,29.71,SSE,158,11.6,11.6,64,0.00,,,0.00,WUHU216HW,2013-04-29 16:31:00,
2013-04-29 11:36:00,77.0,65.7,29.71,SSW,203,12.8,12.8,68,0.00,,,0.00,WUHU216HW,2013-04-29 16:36:00,
2013-04-29 11:41:00,77.4,66.1,29.71,SSW,203,13.0,13.0,68,0.00,,,0.00,WUHU216HW,2013-04-29 16:41:00,
2013-04-29 11:46:00,77.0,64.8,29.71,WSW,248,9.8,13.0,66,0.00,,,0.00,WUHU216HW,2013-04-29 16:46:00,
2013-04-29 11:51:00,76.9,64.6,29.71,SSW,203,9.4,13.0,66,0.00,,,0.00,WUHU216HW,2013-04-29 16:51:00,
2013-04-29 11:56:00,76.9,64.2,29.71,SW,225,11.4,11.4,65,0.00,,,0.00,WUHU216HW,2013-04-29 16:56:00,
2013-04-29 12:01:00,77.6,65.4,29.71,South,180,10.3,11.4,66,0.00,,,0.00,WUHU216HW,2013-04-29 17:01:00,
2013-04-29 12:06:00,77.6,65.4,29.71,SSW,203,13.2,13.2,66,0.00,,,0.00,WUHU216HW,2013-04-29 17:06:00,
2013-04-29 12:11:00,77.4,64.3,29.70,South,180,8.1,13.2,64,0.00,,,0.00,WUHU216HW,2013-04-29 17:11:00,
2013-04-29 12:16:00,77.9,66.5,29.70,SW,225,11.2,13.2,68,0.00,,,0.00,WUHU216HW,2013-04-29 17:16:00,
2013-04-29 12:21:00,77.8,65.1,29.70,SSE,158,6.0,11.2,65,0.00,,,0.00,WUHU216HW,2013-04-29 17:21:00,
2013-04-29 12:26:00,78.3,66.4,29.70,SW,225,6.7,11.2,67,0.00,,,0.00,WUHU216HW,2013-04-29 17:26:00,
2013-04-29 12:31:00,78.3,65.5,29.70,SSW,203,10.5,10.5,65,0.00,,,0.00,WUHU216HW,2013-04-29 17:31:00,
2013-04-29 12:36:00,77.9,64.4,29.70,SW,225,11.9,11.9,63,0.00,,,0.00,WUHU216HW,2013-04-29 17:36:00,
2013-04-29 12:41:00,78.3,64.7,29.69,South,180,8.7,11.9,63,0.00,,,0.00,WUHU216HW,2013-04-29 17:41:00,
2013-04-29 12:46:00,78.3,64.7,29.69,SSW,203,10.5,11.9,63,0.00,,,0.00,WUHU216HW,2013-04-29 17:46:00,
2013-04-29 12:51:00,78.8,66.5,29.69,West,270,8.7,10.5,66,0.00,,,0.00,WUHU216HW,2013-04-29 17:51:00,
2013-04-29 12:56:00,79.4,66.2,29.69,SSW,203,5.4,8.7,64,0.00,,,0.00,WUHU216HW,2013-04-29 17:56:00,
2013-04-29 13:00:00,79.6,65.9,29.68,SW,225,7.4,8.7,63,0.00,,,0.00,WUHU216HW,2013-04-29 18:00:00,
2013-04-29 13:05:00,79.4,66.6,29.68,SW,225,4.5,10.1,65,0.00,,,0.00,WUHU216HW,2013-04-29 18:05:00,
2013-04-29 13:10:00,79.6,66.3,29.68,SW,225,8.9,10.1,64,0.00,,,0.00,WUHU216HW,2013-04-29 18:10:00,
2013-04-29 13:15:00,79.7,65.6,29.67,SSW,203,6.0,9.2,62,0.00,,,0.00,WUHU216HW,2013-04-29 18:15:00,
2013-04-29 13:20:00,79.9,67.1,29.68,SW,225,4.0,9.2,65,0.00,,,0.00,WUHU216HW,2013-04-29 18:20:00,
2013-04-29 13:25:00,80.6,66.4,29.67,WSW,248,6.5,9.2,62,0.00,,,0.00,WUHU216HW,2013-04-29 18:25:00,
2013-04-29 13:30:00,81.5,67.7,29.67,SSW,203,7.6,7.6,63,0.00,,,0.00,WUHU216HW,2013-04-29 18:30:00,
2013-04-29 13:35:00,81.7,67.4,29.67,SW,225,12.1,12.1,62,0.00,,,0.00,WUHU216HW,2013-04-29 18:35:00,
2013-04-29 13:40:00,81.0,65.9,29.67,South,180,7.6,12.1,60,0.00,,,0.00,WUHU216HW,2013-04-29 18:40:00,
2013-04-29 13:45:00,81.5,65.8,29.67,SW,225,8.3,14.3,59,0.00,,,0.00,WUHU216HW,2013-04-29 18:45:00,
2013-04-29 13:50:00,81.7,66.0,29.67,SSW,203,11.2,14.3,59,0.00,,,0.00,WUHU216HW,2013-04-29 18:50:00,
2013-04-29 13:55:00,82.3,67.4,29.66,SE,135,6.3,11.2,61,0.00,,,0.00,WUHU216HW,2013-04-29 18:55:00,
2013-04-29 14:00:00,82.4,65.1,29.66,SSW,203,8.5,13.0,56,0.00,,,0.00,WUHU216HW,2013-04-29 19:00:00,
2013-04-29 14:05:00,82.6,65.3,29.66,SW,225,10.1,13.0,56,0.00,,,0.00,WUHU216HW,2013-04-29 19:05:00,
2013-04-29 14:10:00,82.8,67.0,29.66,SSW,203,7.2,10.1,59,0.00,,,0.00,WUHU216HW,2013-04-29 19:10:00,
2013-04-29 14:15:00,83.2,68.3,29.66,SSW,203,8.7,11.6,61,0.00,,,0.00,WUHU216HW,2013-04-29 19:15:00,
2013-04-29 14:20:00,83.5,69.1,29.65,SW,225,5.1,11.6,62,0.00,,,0.00,WUHU216HW,2013-04-29 19:20:00,
2013-04-29 14:25:00,83.2,66.3,29.65,South,180,10.5,10.5,57,0.00,,,0.00,WUHU216HW,2013-04-29 19:25:00,
2013-04-29 14:30:00,83.5,67.1,29.65,SSW,203,9.6,11.9,58,0.00,,,0.00,WUHU216HW,2013-04-29 19:30:00,
2013-04-29 14:35:00,84.1,66.7,29.65,SSW,203,7.4,11.9,56,0.00,,,0.00,WUHU216HW,2013-04-29 19:35:00,
2013-04-29 14:40:00,84.6,69.3,29.65,South,180,8.1,10.3,60,0.00,,,0.00,WUHU216HW,2013-04-29 19:40:00,
2013-04-29 14:45:00,84.6,67.1,29.65,SSE,158,7.8,12.1,56,0.00,,,0.00,WUHU216HW,2013-04-29 19:45:00,
2013-04-29 14:50:00,85.0,69.0,29.64,South,180,6.3,12.1,59,0.00,,,0.00,WUHU216HW,2013-04-29 19:50:00,
2013-04-29 14:55:00,85.0,68.6,29.64,SSE,158,8.3,12.1,58,0.00,,,0.00,WUHU216HW,2013-04-29 19:55:00,
2013-04-29 15:00:00,85.1,68.7,29.64,SW,225,7.8,12.1,58,0.00,,,0.00,WUHU216HW,2013-04-29 20:00:00,
2013-04-29 15:05:00,85.3,67.9,29.63,South,180,12.8,12.8,56,0.00,,,0.00,WUHU216HW,2013-04-29 20:05:00,
2013-04-29 15:10:00,85.3,68.9,29.63,SSW,203,7.6,12.8,58,0.00,,,0.00,WUHU216HW,2013-04-29 20:10:00,
2013-04-29 15:15:00,85.7,68.1,29.63,SSW,203,5.4,12.8,56,0.00,,,0.00,WUHU216HW,2013-04-29 20:15:00,
2013-04-29 15:20:00,86.2,68.7,29.62,South,180,10.1,11.4,56,0.00,,,0.00,WUHU216HW,2013-04-29 20:20:00,
2013-04-29 15:25:00,86.4,70.4,29.62,SSW,203,8.9,11.4,59,0.00,,,0.00,WUHU216HW,2013-04-29 20:25:00,
2013-04-29 15:30:00,86.6,68.0,29.62,South,180,10.5,10.7,54,0.00,,,0.00,WUHU216HW,2013-04-29 20:30:00,
2013-04-29 15:35:00,86.6,68.5,29.62,SSE,158,6.3,10.7,55,0.00,,,0.00,WUHU216HW,2013-04-29 20:35:00,
2013-04-29 15:40:00,86.8,69.1,29.62,South,180,8.3,10.1,56,0.00,,,0.00,WUHU216HW,2013-04-29 20:40:00,
2013-04-29 15:45:00,86.8,68.1,29.61,SSE,158,8.3,9.8,54,0.00,,,0.00,WUHU216HW,2013-04-29 20:45:00,
2013-04-29 15:50:00,86.8,68.1,29.61,South,180,11.2,13.2,54,0.00,,,0.00,WUHU216HW,2013-04-29 20:50:00,
2013-04-29 15:55:00,87.1,68.0,29.61,South,180,8.7,13.2,53,0.00,,,0.00,WUHU216HW,2013-04-29 20:55:00,
2013-04-29 16:00:00,86.9,66.7,29.61,SSW,203,8.3,8.7,51,0.00,,,0.00,WUHU216HW,2013-04-29 21:00:00,
2013-04-29 16:05:00,86.4,64.5,29.60,SSE,158,12.8,12.8,48,0.00,,,0.00,WUHU216HW,2013-04-29 21:05:00,
2013-04-29 16:10:00,86.0,66.4,29.60,SW,225,8.3,12.8,52,0.00,,,0.00,WUHU216HW,2013-04-29 21:10:00,
2013-04-29 16:15:00,85.5,65.9,29.60,SSW,203,11.0,12.8,52,0.00,,,0.00,WUHU216HW,2013-04-29 21:15:00,
2013-04-29 16:20:00,85.0,66.0,29.60,South,180,8.1,12.8,53,0.00,,,0.00,WUHU216HW,2013-04-29 21:20:00,
2013-04-29 16:25:00,85.0,65.4,29.60,SSW,203,12.1,12.1,52,0.00,,,0.00,WUHU216HW,2013-04-29 21:25:00,
2013-04-29 16:30:00,85.0,65.4,29.59,South,180,12.1,12.1,52,0.00,,,0.00,WUHU216HW,2013-04-29 21:30:00,
2013-04-29 16:35:00,85.1,66.1,29.59,South,180,9.2,12.5,53,0.00,,,0.00,WUHU216HW,2013-04-29 21:35:00,
2013-04-29 16:40:00,85.1,64.5,29.59,SSE,158,15.7,17.2,50,0.00,,,0.00,WUHU216HW,2013-04-29 21:40:00,
2013-04-29 16:45:00,84.8,65.8,29.59,South,180,12.1,17.2,53,0.00,,,0.00,WUHU216HW,2013-04-29 21:45:00,
2013-04-29 16:50:00,84.6,64.5,29.59,South,180,14.1,15.7,51,0.00,,,0.00,WUHU216HW,2013-04-29 21:50:00,
2013-04-29 16:55:00,84.8,65.8,29.59,SSE,158,9.4,14.1,53,0.00,,,0.00,WUHU216HW,2013-04-29 21:55:00,
2013-04-29 17:00:00,84.8,64.7,29.59,SSE,158,10.5,12.8,51,0.00,,,0.00,WUHU216HW,2013-04-29 22:00:00,
2013-04-29 17:05:00,85.1,64.5,29.59,South,180,13.0,15.9,50,0.00,,,0.00,WUHU216HW,2013-04-29 22:05:00,
2013-04-29 17:10:00,85.0,64.4,29.58,SE,135,10.7,15.9,50,0.00,,,0.00,WUHU216HW,2013-04-29 22:10:00,
2013-04-29 17:15:00,85.0,63.7,29.58,SSW,203,14.8,14.8,49,0.00,,,0.00,WUHU216HW,2013-04-29 22:15:00,
2013-04-29 17:20:00,85.0,63.7,29.58,South,180,10.7,14.8,49,0.00,,,0.00,WUHU216HW,2013-04-29 22:20:00,
2013-04-29 17:25:00,85.1,62.0,29.58,South,180,16.3,16.3,46,0.00,,,0.00,WUHU216HW,2013-04-29 22:25:00,
2013-04-29 17:30:00,85.1,63.9,29.58,South,180,15.7,16.3,49,0.00,,,0.00,WUHU216HW,2013-04-29 22:30:00,
2013-04-29 17:35:00,86.2,64.9,29.58,South,180,11.0,15.7,49,0.00,,,0.00,WUHU216HW,2013-04-29 22:35:00,
2013-04-29 17:40:00,85.5,67.0,29.58,SE,135,10.3,15.4,54,0.00,,,0.00,WUHU216HW,2013-04-29 22:40:00,
2013-04-29 17:45:00,84.8,66.8,29.58,SSE,158,11.4,15.4,55,0.00,,,0.00,WUHU216HW,2013-04-29 22:45:00,
2013-04-29 17:50:00,85.0,66.0,29.58,SSW,203,10.1,13.4,53,0.00,,,0.00,WUHU216HW,2013-04-29 22:50:00,
2013-04-29 17:55:00,85.3,66.2,29.57,South,180,9.8,13.6,53,0.00,,,0.00,WUHU216HW,2013-04-29 22:55:00,
2013-04-29 18:00:00,85.7,67.2,29.57,SSW,203,8.5,13.6,54,0.00,,,0.00,WUHU216HW,2013-04-29 23:00:00,
2013-04-29 18:05:00,86.2,67.6,29.57,SW,225,5.8,12.8,54,0.00,,,0.00,WUHU216HW,2013-04-29 23:05:00,
2013-04-29 18:10:00,86.2,66.5,29.57,South,180,13.4,13.4,52,0.00,,,0.00,WUHU216HW,2013-04-29 23:10:00,
2013-04-29 18:15:00,86.0,67.4,29.57,South,180,6.7,13.4,54,0.00,,,0.00,WUHU216HW,2013-04-29 23:15:00,
2013-04-29 18:20:00,86.2,66.5,29.57,SSW,203,11.0,13.4,52,0.00,,,0.00,WUHU216HW,2013-04-29 23:20:00,
2013-04-29 18:25:00,86.2,67.1,29.58,SSE,158,5.6,14.3,53,0.00,,,0.00,WUHU216HW,2013-04-29 23:25:00,
2013-04-29 18:30:00,86.0,66.4,29.58,South,180,9.8,14.3,52,0.00,,,0.00,WUHU216HW,2013-04-29 23:30:00,
2013-04-29 18:35:00,85.9,67.2,29.58,South,180,10.3,10.5,54,0.00,,,0.00,WUHU216HW,2013-04-29 23:35:00,
2013-04-29 18:40:00,85.5,66.4,29.57,SSW,203,6.3,13.2,53,0.00,,,0.00,WUHU216HW,2013-04-29 23:40:00,
2013-04-29 18:45:00,85.5,65.9,29.57,SSW,203,10.7,13.2,52,0.00,,,0.00,WUHU216HW,2013-04-29 23:45:00,
2013-04-29 18:50:00,85.1,65.1,29.57,SSW,203,12.5,18.6,51,0.00,,,0.00,WUHU216HW,2013-04-29 23:50:00,
2013-04-29 18:55:00,84.2,65.3,29.57,South,180,9.2,18.6,53,0.00,,,0.00,WUHU216HW,2013-04-29 23:55:00,
2013-04-29 19:00:00,83.9,64.9,29.58,South,180,13.2,14.1,53,0.00,,,0.00,WUHU216HW,2013-04-30 00:00:00,
2013-04-29 19:05:00,83.5,64.5,29.58,South,180,9.8,13.2,53,0.00,,,0.00,WUHU216HW,2013-04-30 00:05:00,
2013-04-29 19:10:00,83.3,64.4,29.58,SSE,158,6.7,11.4,53,0.00,,,0.00,WUHU216HW,2013-04-30 00:10:00,
2013-04-29 19:15:00,83.2,63.7,29.58,SE,135,12.5,12.5,52,0.00,,,0.00,WUHU216HW,2013-04-30 00:15:00,
2013-04-29 19:20:00,82.1,63.7,29.58,SW,225,6.9,12.5,54,0.00,,,0.00,WUHU216HW,2013-04-30 00:20:00,
2013-04-29 19:25:00,80.3,63.1,29.58,SSE,158,6.7,12.5,56,0.00,,,0.00,WUHU216HW,2013-04-30 00:25:00,
2013-04-29 19:30:00,79.9,63.3,29.58,South,180,6.9,6.9,57,0.00,,,0.00,WUHU216HW,2013-04-30 00:30:00,
2013-04-29 19:35:00,78.8,63.9,29.58,SE,135,6.9,12.1,60,0.00,,,0.00,WUHU216HW,2013-04-30 00:35:00,
2013-04-29 19:40:00,78.1,63.6,29.58,SSE,158,7.8,12.1,61,0.00,,,0.00,WUHU216HW,2013-04-30 00:40:00,
2013-04-29 19:45:00,77.2,63.6,29.58,SSE,158,9.2,9.2,63,0.00,,,0.00,WUHU216HW,2013-04-30 00:45:00,
2013-04-29 19:50:00,76.7,63.1,29.58,SSE,158,6.5,9.2,63,0.00,,,0.00,WUHU216HW,2013-04-30 00:50:00,
2013-04-29 19:55:00,76.3,62.8,29.58,South,180,6.3,9.2,63,0.00,,,0.00,WUHU216HW,2013-04-30 00:55:00,
2013-04-29 20:00:00,75.8,62.7,29.58,SE,135,6.9,6.9,64,0.00,,,0.00,WUHU216HW,2013-04-30 01:00:00,
2013-04-29 20:05:00,75.6,62.1,29.58,SSE,158,6.0,8.9,63,0.00,,,0.00,WUHU216HW,2013-04-30 01:05:00,
2013-04-29 20:10:00,75.2,61.7,29.58,South,180,9.2,9.2,63,0.00,,,0.00,WUHU216HW,2013-04-30 01:10:00,
2013-04-29 20:15:00,74.9,61.5,29.58,South,180,6.3,9.2,63,0.00,,,0.00,WUHU216HW,2013-04-30 01:15:00,
2013-04-29 20:20:00,74.7,61.3,29.58,SSE,158,9.4,10.1,63,0.00,,,0.00,WUHU216HW,2013-04-30 01:20:00,
2013-04-29 20:25:00,74.5,61.1,29.58,SSW,203,6.9,10.1,63,0.00,,,0.00,WUHU216HW,2013-04-30 01:25:00,
2013-04-29 20:30:00,74.3,60.9,29.58,SSE,158,6.9,9.4,63,0.00,,,0.00,WUHU216HW,2013-04-30 01:30:00,
2013-04-29 20:35:00,74.0,60.6,29.58,SSE,158,8.5,8.5,63,0.00,,,0.00,WUHU216HW,2013-04-30 01:35:00,
2013-04-29 20:40:00,74.0,60.6,29.57,South,180,7.6,11.0,63,0.00,,,0.00,WUHU216HW,2013-04-30 01:40:00,
2013-04-29 20:45:00,73.8,60.4,29.58,South,180,9.8,11.0,63,0.00,,,0.00,WUHU216HW,2013-04-30 01:45:00,
2013-04-29 20:50:00,73.6,60.2,29.57,SE,135,9.8,12.8,63,0.00,,,0.00,WUHU216HW,2013-04-30 01:50:00,
2013-04-29 20:55:00,73.4,60.0,29.57,SSE,158,10.3,12.8,63,0.00,,,0.00,WUHU216HW,2013-04-30 01:55:00,
2013-04-29 21:00:00,73.3,59.9,29.57,SSE,158,10.7,11.6,63,0.00,,,0.00,WUHU216HW,2013-04-30 02:00:00,
2013-04-29 21:05:00,73.3,59.9,29.57,South,180,9.8,11.4,63,0.00,,,0.00,WUHU216HW,2013-04-30 02:05:00,
2013-04-29 21:10:00,72.9,59.5,29.57,SSW,203,8.5,10.3,63,0.00,,,0.00,WUHU216HW,2013-04-30 02:10:00,
2013-04-29 21:15:00,72.7,59.8,29.57,SSW,203,7.6,10.5,64,0.00,,,0.00,WUHU216HW,2013-04-30 02:15:00,
2013-04-29 21:20:00,72.7,59.8,29.57,South,180,8.9,12.8,64,0.00,,,0.00,WUHU216HW,2013-04-30 02:20:00,
2013-04-29 21:25:00,72.7,59.8,29.57,SW,225,10.5,13.4,64,0.00,,,0.00,WUHU216HW,2013-04-30 02:25:00,
2013-04-29 21:30:00,72.7,59.8,29.57,SSE,158,12.1,13.4,64,0.00,,,0.00,WUHU216HW,2013-04-30 02:30:00,
2013-04-29 21:35:00,72.5,59.7,29.57,South,180,12.5,12.5,64,0.00,,,0.00,WUHU216HW,2013-04-30 02:35:00,
2013-04-29 21:40:00,72.5,59.7,29.58,SE,135,7.6,12.5,64,0.00,,,0.00,WUHU216HW,2013-04-30 02:40:00,
2013-04-29 21:45:00,72.4,59.5,29.57,South,180,10.7,12.5,64,0.00,,,0.00,WUHU216HW,2013-04-30 02:45:00,
2013-04-29 21:50:00,72.0,59.1,29.57,South,180,8.5,13.2,64,0.00,,,0.00,WUHU216HW,2013-04-30 02:50:00,
2013-04-29 21:55:00,72.0,59.1,29.58,SSW,203,16.3,16.3,64,0.00,,,0.00,WUHU216HW,2013-04-30 02:55:00,
2013-04-29 22:00:00,72.2,59.3,29.58,South,180,10.5,16.3,64,0.00,,,0.00,WUHU216HW,2013-04-30 03:00:00,
2013-04-29 22:05:00,72.0,59.1,29.58,South,180,11.4,12.5,64,0.00,,,0.00,WUHU216HW,2013-04-30 03:05:00,
2013-04-29 22:10:00,72.0,58.7,29.58,SSE,158,10.3,12.5,63,0.00,,,0.00,WUHU216HW,2013-04-30 03:10:00,
2013-04-29 22:15:00,72.0,59.1,29.58,SSE,158,10.1,11.2,64,0.00,,,0.00,WUHU216HW,2013-04-30 03:15:00,
2013-04-29 22:20:00,71.6,58.8,29.58,South,180,11.9,13.4,64,0.00,,,0.00,WUHU216HW,2013-04-30 03:20:00,
2013-04-29 22:25:00,71.6,58.8,29.58,SSE,158,13.9,13.9,64,0.00,,,0.00,WUHU216HW,2013-04-30 03:25:00,
2013-04-29 22:30:00,71.6,58.8,29.58,South,180,10.7,13.9,64,0.00,,,0.00,WUHU216HW,2013-04-30 03:30:00,
2013-04-29 22:35:00,71.6,58.8,29.58,South,180,10.1,13.9,64,0.00,,,0.00,WUHU216HW,2013-04-30 03:35:00,
2013-04-29 22:40:00,71.3,58.4,29.59,South,180,13.4,13.6,64,0.00,,,0.00,WUHU216HW,2013-04-30 03:40:00,
2013-04-29 22:45:00,70.9,58.2,29.59,SSW,203,12.3,14.3,64,0.00,,,0.00,WUHU216HW,2013-04-30 03:45:00,
2013-04-29 22:50:00,71.1,58.3,29.59,SSW,203,11.4,14.3,64,0.00,,,0.00,WUHU216HW,2013-04-30 03:50:00,
2013-04-29 22:55:00,70.9,58.2,29.59,SSW,203,13.2,13.2,64,0.00,,,0.00,WUHU216HW,2013-04-30 03:55:00,
2013-04-29 23:00:00,70.7,58.3,29.59,South,180,11.0,13.2,65,0.00,,,0.00,WUHU216HW,2013-04-30 04:00:00,
2013-04-29 23:01:00,70.7,58.3,29.59,South,180,10.5,13.2,65,0.00,,,0.00,WUHU216HW,2013-04-30 04:01:00,
2013-04-29 23:06:00,70.9,58.5,29.59,South,180,9.2,17.0,65,0.00,,,0.00,WUHU216HW,2013-04-30 04:06:00,
2013-04-29 23:11:00,70.7,58.3,29.59,South,180,17.2,17.2,65,0.00,,,0.00,WUHU216HW,2013-04-30 04:11:00,
2013-04-29 23:16:00,70.7,58.3,29.59,SSW,203,8.3,17.2,65,0.00,,,0.00,WUHU216HW,2013-04-30 04:16:00,
2013-04-29 23:21:00,70.6,58.2,29.59,South,180,7.6,17.2,65,0.00,,,0.00,WUHU216HW,2013-04-30 04:21:00,
2013-04-29 23:26:00,70.4,58.1,29.59,SW,225,11.6,11.6,65,0.00,,,0.00,WUHU216HW,2013-04-30 04:26:00,
2013-04-29 23:31:00,70.4,58.1,29.59,SSW,203,13.0,14.8,65,0.00,,,0.00,WUHU216HW,2013-04-30 04:31:00,
2013-04-29 23:36:00,70.6,58.2,29.59,South,180,10.5,14.8,65,0.00,,,0.00,WUHU216HW,2013-04-30 04:36:00,
2013-04-29 23:41:00,70.6,58.2,29.59,SSW,203,12.1,13.0,65,0.00,,,0.00,WUHU216HW,2013-04-30 04:41:00,
2013-04-29 23:46:00,70.6,58.2,29.59,SSW,203,14.1,14.1,65,0.00,,,0.00,WUHU216HW,2013-04-30 04:46:00,
2013-04-29 23:51:00,70.4,58.1,29.59,South,180,12.8,15.0,65,0.00,,,0.00,WUHU216HW,2013-04-30 04:51:00,
2013-04-29 23:56:00,70.6,58.2,29.59,South,180,12.8,15.0,65,0.00,,,0.00,WUHU216HW,2013-04-30 04:56:00,